Regional Weather Roundup
Issued by NWS Portland, ME

Home | Current Version | Previous Version | Text Only | Print | Product List | Glossary On
Versions: 1 2 3 4 5 6 7 8 9 10 11 12 13 14 15 16 17 18 19 20 21 22 23 24 25 26 27 28 29 30 31 32 33 34 35 36 37 38 39 40 41 42 43 44 45 46 47 48 49 50
000
ASUS41 KGYX 211410
RWRGYX
WEATHER ROUNDUP FOR MAINE AND NEW HAMPSHIRE
NATIONAL WEATHER SERVICE GRAY ME
1000 AM EDT FRI JUL 21 2017

MEZ002-005-006-010-012-015-018-020-021-024-026-027-029-211500-
MAINE

CITY           SKY/WX    TMP DP  RH WIND       PRES   REMARKS
PORTLAND       MOSUNNY   80  62  54 NW9       29.83S
SANFORD          N/A     80  63  55 W5        29.86R
BAR HARBOR     SUNNY     79  65  62 N6        29.80S
WISCASSET      SUNNY     82  64  54 VRB5      29.83S
ROCKLAND       SUNNY     79  66  64 N7        29.81R
FRYEBURG       SUNNY     79  63  57 CALM      29.86R
LEWISTONAUBURN SUNNY     77  62  59 NW10      29.84R
AUGUSTA        SUNNY     79  62  56 NW8       29.82S
WATERVILLE     SUNNY     79  64  60 NW5       29.79F
BANGOR         MOSUNNY   79  64  60 VRB3      29.80S
GREENVILLE       N/A     72  62  71 NW10      29.82S
MILLINOCKET    MOSUNNY   75  65  70 W8        29.79S
HOULTON        MOSUNNY   75  66  73 W5        29.75F
PRESQUE ISLE   CLOUDY    71  63  75 W7        29.78S
FRENCHVILLE    CLOUDY    69  59  70 W9        29.76F
CARIBOU        CLOUDY    70  63  78 W7        29.76S
$$

NHZ002-005-008-009-011-012-014-211500-
NEW HAMPSHIRE

CITY           SKY/WX    TMP DP  RH WIND       PRES   REMARKS
PORTSMOUTH     MOSUNNY   79  62  55 W7        29.85R
ROCHESTER      SUNNY     79  62  56 VRB5      29.86R
NASHUA         SUNNY     79  61  53 NW6       29.87F
MANCHESTER     MOSUNNY   80  56  43 NW8       29.86S
CONCORD        SUNNY     78  61  55 W8        29.87S
LACONIA        MOSUNNY   76  61  59 W8        29.88R
PLYMOUTH       FAIR      75  57  53 NW3       29.88S
BERLIN         SUNNY     77  57  50 NW5       29.89S
WHITEFIELD     SUNNY     75  57  53 VRB3      29.90S
JAFFREY        SUNNY     77  58  51 S5        29.92R
KEENE          SUNNY     74  61  63 CALM      29.91F
LEBANON        SUNNY     73  63  70 VRB3      29.89F
MT WASHINGTON  FOG       52  52 100 NW18        N/A  VSB 1/8
$$

VTZ005-007-008-211500-
VERMONT

CITY           SKY/WX    TMP DP  RH WIND       PRES   REMARKS
ST JOHNSBURY     N/A     71  63  75 MISG      29.87F
MONTPELIER     SUNNY     72  61  68 CALM      29.93F
BURLINGTON     MOSUNNY   76  60  57 S7        29.87F
$$

MAZ007-012-024-CTZ003-RIZ002-NYZ038-NYZ072-211500-
SOUTHERN NEW ENGLAND AND NY

CITY           SKY/WX    TMP DP  RH WIND       PRES   REMARKS
BOSTON         MOSUNNY   82  59  45 NW10      29.86R
WORCESTER      SUNNY     76  59  55 W14       29.92R
NANTUCKET      MOSUNNY   80  64  58 W9        29.86R
PROVIDENCE     MOSUNNY   82  66  58 NW9       29.88S
HARTFORD       MOSUNNY   80  67  64 NW8       29.90S
ALBANY         PTSUNNY   76  65  68 CALM      29.92F
NEW YORK CITY  MOSUNNY   83  69  62 NW9       29.92R
$$

ANZ081-ANZ082-ANZ150-NHZ014-MEZ023>029-211500-
COASTAL MARINE OBSERVATIONS

STATION/POSITION TIME  TEMP    WIND        PRES    WAVE
                       AIR SEA DIR/SP/G            HT/PER
                 (UTC) (F)     (DEG/KT/KT) (MB)    (FT/S)
MOUNT DESERT ROC 1400   63                 1009.2R
MATINICUS ROCK   1300   66     300/  6/  7 1008.8F
ISLE OF SHOALS   1300   71     270/  7/  7 1010.2R
JEFFREYS LEDGE   1306      65                N/A     1/13
CASHES LEDGE BUO 1250   73 68              1009.3    2/14
GEORGES BANK BUO 1250   68 63              1009.4    4/ 7
$$

.............KEY..............
   WCI - WIND CHILL
   TC  - TEMPERATURE IN CELSIUS
   VSB - VISIBILITY IN MILES
   HX  - HEAT INDEX
   FAIR- INDICATES FEW OR NO CLOUDS BELOW 12,000 FT, WITH NO
         SIGNIFICANT WEATHER AND/OR OBSTRUCTIONS TO VISIBILITY.






USA.gov is the U.S. government's official web portal to all federal, state and local government web resources and services.